Weather History for KLMT - October, 2011

Change the Weather History Date:

Friday, October 28, 2011

  Actual Average Record
Temperature  
Mean Temperature 41 °F 42 °F  
Max Temperature 61 °F 56 °F 75 °F (2003)
Min Temperature 20 °F 29 °F 16 °F (1971)
Degree Days  
Heating Degree Days 24 23  
Month to date heating degree days 504 490  
Since 1 July heating degree days 727 846  
Cooling Degree Days 0 0  
Month to date cooling degree days 0 0  
Year to date cooling degree days 104 169  
Moisture  
Dew Point 19 °F    
Average Humidity 55    
Maximum Humidity 88    
Minimum Humidity 11    
Precipitation  
Precipitation 0.00 in 0.07 in 1.52 in (1950)
Month to date precipitation 0.54 0.85  
Year to date precipitation 6.14 11.12  
Sea Level Pressure  
Sea Level Pressure 30.21 in    
Wind  
Wind Speed 2 mph (SW)    
Max Wind Speed 16 mph    
Max Gust Speed 21 mph    
Visibility 10 miles    
Events      
T = Trace of Precipitation, MM = Missing Value Source: NWS Daily Summary

Daily Weather History Graph

Daily Weather History Graph

Search for Another Location

Airport or City:

Trip Planner

Search our weather history database for the weather conditions in past years. The results will help you decide how hot, cold, wet, or windy it might be!

Date:

Astronomy

Oct. 28, 2011 Rise Set
Actual Time 7:34 AM PDT 6:06 PM PDT
Civil Twilight 7:05 AM PDT 6:34 PM PDT
Nautical Twilight 6:32 AM PDT 7:07 PM PDT
Astronomical Twilight 6:00 AM PDT 7:40 PM PDT
Moon 9:59 AM PDT (10/28) 7:30 PM PDT (10/28)
Length of Visible Light 11h 29m
Length of Day
10h 31m
Waxing Crescent, 6% of the Moon is Illuminated
Oct 28
Waxing Crescent
Nov 2
First Quarter
Nov 10
Full
Nov 18
Last Quarter
Nov 24
New

Hourly Weather History & Observations

Time (PDT) Temp. Windchill Dew Point Humidity Pressure Visibility Wind Dir Wind Speed Gust Speed Precip Events Conditions
12:53 AM 28.0 °F - 24.1 °F 85% 30.18 in 10.0 mi Calm Calm - N/A   Clear
1:53 AM 27.0 °F - 21.0 °F 78% 30.19 in 10.0 mi Calm Calm - N/A   Clear
2:53 AM 26.1 °F 21.9 °F 21.9 °F 84% 30.18 in 10.0 mi ESE 3.5 mph - N/A   Clear
3:53 AM 25.0 °F - 18.0 °F 75% 30.18 in 10.0 mi Calm Calm - N/A   Clear
4:53 AM 24.1 °F - 19.0 °F 81% 30.18 in 10.0 mi Calm Calm - N/A   Clear
5:53 AM 23.0 °F - 19.0 °F 85% 30.21 in 10.0 mi Calm Calm - N/A   Clear
6:02 AM 24.8 °F - 19.4 °F 80% 30.19 in 10.0 mi Calm Calm - N/A   Scattered Clouds
6:53 AM 21.0 °F - 17.1 °F 85% 30.24 in 10.0 mi Calm Calm - N/A   Scattered Clouds
7:53 AM 24.1 °F - 19.0 °F 81% 30.25 in 10.0 mi Calm Calm - N/A   Mostly Cloudy
8:53 AM 30.0 °F - 23.0 °F 75% 30.26 in 10.0 mi Calm Calm - N/A   Mostly Cloudy
9:53 AM 35.6 °F - 24.8 °F 65% 30.22 in 10.0 mi Calm Calm - N/A   Mostly Cloudy
10:53 AM 39.9 °F - 27.0 °F 60% 30.24 in 10.0 mi Calm Calm - N/A   Mostly Cloudy
11:53 AM 46.0 °F - 26.1 °F 46% 30.23 in 10.0 mi Calm Calm - N/A   Mostly Cloudy
12:53 PM 48.9 °F - 21.0 °F 33% 30.22 in 10.0 mi Calm Calm - N/A   Mostly Cloudy
1:53 PM 53.1 °F - 17.1 °F 24% 30.20 in 10.0 mi Calm Calm - N/A   Mostly Cloudy
2:53 PM 57.0 °F - 21.9 °F 26% 30.17 in 10.0 mi Calm Calm - N/A   Mostly Cloudy
3:53 PM 60.1 °F - 17.1 °F 19% 30.15 in 10.0 mi SSW 6.9 mph - N/A   Mostly Cloudy
4:53 PM 61.0 °F - 6.1 °F 11% 30.15 in 10.0 mi West 13.8 mph - N/A   Mostly Cloudy
5:53 PM 57.0 °F - 9.0 °F 15% 30.17 in 10.0 mi West 11.5 mph - N/A   Scattered Clouds
6:53 PM 51.1 °F - 15.1 °F 24% 30.20 in 10.0 mi WSW 9.2 mph - N/A   Scattered Clouds
7:53 PM 44.1 °F - 19.9 °F 38% 30.22 in 10.0 mi Calm Calm - N/A   Scattered Clouds
8:53 PM 39.9 °F 36.7 °F 19.0 °F 43% 30.23 in 10.0 mi SW 4.6 mph - N/A   Scattered Clouds
9:53 PM 36.0 °F - 19.0 °F 50% 30.25 in 10.0 mi Calm Calm - N/A   Partly Cloudy
10:53 PM 34.0 °F - 21.0 °F 59% 30.26 in 10.0 mi Calm Calm - N/A   Clear
11:53 PM 33.1 °F - 21.9 °F 64% 30.24 in 9.0 mi Calm Calm - N/A   Clear